{"data":{"norad_id":61593,"intl_designator":"2024-187V","name":"STARLINK-32397","alt_names":[],"object_type":"PAYLOAD","status":"ACTIVE","operator":null,"country":"US","launch_date":"2024-10-18","launch_site_code":"AFETR","launch_vehicle":null,"mission":null,"orbit_class":"UNKNOWN","rcs_meters":null,"size_class":null,"mass_kg":null,"dimensions":null,"purposes":["comms"],"wikipedia_slug":null,"has_3d_model":false,"image_url":null,"decayed_at":null,"tle_current":{"epoch":"2026-09-21T21:27:29.909088Z","epoch_age_seconds":71685,"freshness":"FRESH","line1":"1 61593U 24187V   26264.89409617 -.00000200  00000+0  52187-5 0  9990","line2":"2 61593  53.1596 227.2751 0001333  86.1792 273.9364 15.34385575109217","mean_motion":15.34385575,"eccentricity":0.0001333,"inclination_deg":53.1596,"raan_deg":227.2751,"arg_perigee_deg":86.1792,"mean_anomaly_deg":273.9364,"bstar":5.2187e-6,"rev_number":10921,"period_min":93.848640358862,"perigee_km":461.83422496374,"apogee_km":463.65800440211,"semimajor_km":6840.8831146829,"source":"CELESTRAK","updated_at":"2026-09-22T09:00:49.394326Z"}}}